STARLINK-3946 (52693 NORAD) Tracking and Keplerian Element Data

This shows tracking and keplerian element data for the satellite.

Feedback or suggestion? Click here.




ElementValue
Catalog52693
NameSTARLINK-3946
Epoch Orbit1443
Epoch Day229.25002315
Epoch Year2022
RAAN222.0018
Inclination53.2187
Eccentricity0.0002195
Argument of Perigee47.6941
Mean Anonmoly159.8992
Mean Motion15.08835722
Decay Rate-0.00013739
L11 52693U 22053AP 22229.25002315 -.00013739 00000+0 -84683-3 0 9998
L22 52693 53.2187 222.0018 0002195 47.6941 159.8992 15.08835722 14432

Live tracking and technical data element details for STARLINK-3946 (NORAD 52693). STARLINK-3946 can be tracked NOW for your location showing map with azimuth and elevation plus other details from your city location.

Track the satellite on the map from your city or location and see movement details for azimuth, elevation, latitude, longitude, range, height, and movement on the map or in text.







IsCatalogInMostPopularTable: catalog: 52693, numindb: 7
Update: records affected: 1



GetName: 52693 STARLINK-3946

Hit Count: updated at: Thu, 18 Aug 2022 20:14:51 GMT